Location: Unspecified
(34.4950°S, 58.5160°W)
Time: 03:46:38
(UTC+00:00)

ISS - Visible Passes

Search period start: 18 February 2026 00:00
Search period end: 28 February 2026 00:00
Orbit: 413 x 428 km, 51.6° (Epoch: 17 February)

Date Brightness Start Highest point End Pass type
(mag) Time Alt. Az. Time Alt. Az. Time Alt. Az.
19 Feb -0.7 01:00:00 10° S 01:00:42 12° S 01:00:42 12° S visible
21 Feb -1.1 01:01:22 10° SSW 01:02:42 18° S 01:02:42 18° S visible
22 Feb -1.6 00:14:33 10° SSW 00:17:01 18° SSE 00:17:15 18° SE visible
22 Feb -1.2 23:27:59 10° S 23:29:34 13° SSE 23:31:10 10° SE visible
23 Feb -1.2 01:03:23 10° SW 01:04:48 22° SW 01:04:48 22° SW visible
24 Feb -3.0 00:16:15 10° SW 00:19:26 44° SSE 00:19:26 44° SSE visible
24 Feb -2.3 23:29:14 10° SSW 23:32:16 27° SE 23:34:07 17° E visible
25 Feb -0.8 01:06:05 10° WSW 01:07:06 16° W 01:07:06 16° W visible
26 Feb -3.1 00:18:29 10° WSW 00:21:52 49° NW 00:21:52 49° NW visible
26 Feb -3.8 23:31:07 10° SW 23:34:36 86° SE 23:36:42 22° NE visible
